AirNav   ATP
 
 854 users online  

44G Betz Airport
Blissfield, Michigan, USA

GOING TO BLISSFIELD?


FAA INFORMATION EFFECTIVE 08 NOVEMBER 2018

Location

FAA Identifier: 44G
Lat/Long: 41-51-20.1730N / 083-52-14.7880W
41-51.336217N / 083-52.246467W
41.8556036 / -83.8707744
(estimated)
Elevation: 691 ft. / 210.6 m (surveyed)
Variation: 05W (1985)
From city: 2 miles N of BLISSFIELD, MI
Time zone: UTC -5 (UTC -4 during Daylight Saving Time)
Zip code: 49228

Airport Operations

Airport use: Open to the public
Activation date: 09/1949
Control tower: no
ARTCC: CLEVELAND CENTER
FSS: LANSING FLIGHT SERVICE STATION
NOTAMs facility: LAN (NOTAM-D service available)
Attendance: UNATNDD
TO CONFIRM SNOW CONDITIONS WINTER MONTHS CALL 517-499-4860
Wind indicator: yes
Segmented circle: no

Airport Communications

CTAF: 122.9
WX ASOS at ADG (9 nm W): 118.375 (517-265-9089)
WX AWOS-3 at DUH (12 nm SE): 119.175 (734-856-1563)
WX ASOS at TOL (16 nm S): PHONE 419-865-6924
WX AWOS-3P at USE (19 nm SW): 127.375 (419-335-0775)

Nearby radio navigation aids

VOR radial/distance  VOR name  Freq  Var
CRLr241/21.8CARLETON VOR/DME115.7003W
VWVr339/26.4WATERVILLE VOR/DME113.1002W
DXOr232/31.1DETROIT VOR/DME113.4006W
SVMr203/35.4SALEM VORTAC114.3003W
JXNr138/35.7JACKSON VOR/DME109.6005W

 
NDB name  Hdg/Dist  Freq  Var  ID
ADRIAN101/9.327806WADG .- -.. --.
TECUMSEH182/10.723906WTCU - -.-. ..-
GROSSE ILE252/35.241907WRYS .-. -.-- ...

Airport Services

Fuel available: 100LL
FUEL AVBL BY PRIOR ARRANGEMENT; PHONE 517-499-4860
Parking: tiedowns

Runway Information

Runway 9/27

Dimensions: 2602 x 92 ft. / 793 x 28 m
Surface: turf, in good condition
Runway edge markings: RY 09 /27 THLDS AND DSPLCD THLDS MKD WITH CONES.
RUNWAY 9  RUNWAY 27
Latitude: 41-51.303333N41-51.303333N
Longitude: 083-52.532000W083-51.959000W
Traffic pattern: leftleft
Runway heading: 094 magnetic, 089 true275 magnetic, 270 true
Displaced threshold: 415 ft.390 ft.
Runway end identifier lights: nono
Obstructions: 15 ft. road, 30 ft. from runway, 2:1 slope to clear
RY 09 APCH RATIO 29:1 AT DSPLCD THR.
15 ft. road, 45 ft. from runway, 3:1 slope to clear
RY 27 APCH RATIO 29:1 AT DSPLCD THLD.

Airport Ownership and Management from official FAA records

Ownership: Privately-owned
Owner: DIANE SPILLMAN
P.O. BOX 115
BLISSFIELD, MI 49228
Phone 517-499-4860
Manager: DIANE SPILLMAN
4504 BLISSFIELD HWY
BLISSFIELD, MI 49228
Phone 517-499-4860

Airport Operational Statistics

Aircraft based on the field: 9
Single engine airplanes: 9
    
Aircraft operations: avg 58/month *
71% local general aviation
29% transient general aviation
* for 12-month period ending 31 December 2014

Additional Remarks

SOFT IN SPRING.
RY 09 - 3 FT DITCH 10 FT FM THLD.
FOR CD CTC DETROIT APCH AT 800-499-8181.

Instrument Procedures

There are no published instrument procedures at 44G.

Some nearby airports with instrument procedures:

KADG - Lenawee County Airport (9 nm W)
KDUH - Toledo Suburban Airport (12 nm SE)
KTOL - Toledo Express Airport (16 nm S)
KUSE - Fulton County Airport (19 nm SW)
KTTF - Custer Airport (20 nm E)
 
Loc | Ops | Rwys | IFR | FBO | Links
Com | Nav | Svcs | Stats | Notes


 
Area around 44G (Betz Airport)
 
Road maps at: MapQuest Bing Google
 
Aerial photo
WARNING: Photo may not be current or correct
Aerial photo of 44G (Betz Airport)
Photo credit: Mark - www.LocalHangar.com

Do you have a better or more recent aerial photo of Betz Airport that you would like to share? If so, please send us your photo.

 
Sectional chart

 
Airport distance calculator
Flying to Betz Airport? Find the distance to fly.

From to 44G

Sunrise and sunset
Times for 17-Nov-2018
 Local
(UTC-5)
 Zulu
(UTC)
Morning civil twilight06:5811:58
Sunrise07:2912:29
Sunset17:1222:12
Evening civil twilight17:4322:43

Current date and time
Zulu (UTC)  17-Nov-2018 22:13:23
Local (UTC-5)  17-Nov-2018 17:13:23
 
METAR
KADG 
10nm W 
172153Z AUTO 01003KT 10SM BKN018 BKN025 03/M01 A3029 RMK AO2 SLP268 T00281011 TSNO
KDUH 
12nm SE 
172155Z AUTO 00000KT 10SM SCT026 BKN050 BKN120 05/00 A3028 RMK AO2 T00470001
KTOL 
17nm S 
172152Z 32003KT 10SM -RA SCT016 BKN023 OVC031 04/00 A3029 RMK AO2 RAB08 SLP262 P0000 T00390000 $
KUSE 
19nm SW 
172150Z AUTO 00000KT 7SM SCT015 BKN021 OVC032 03/03 A3028 RMK AO2
TAF
KTOL 
17nm S 
171738Z 1718/1818 29005KT P6SM OVC025 FM172200 34004KT P6SM VCSH OVC025 FM180100 05004KT P6SM VCSH OVC015 FM180300 05003KT P6SM OVC015 FM181000 05003KT 4SM -SN OVC008
NOTAMs
Click for the latest NOTAMs
NOTAMs are issued by the DoD/FAA and will open in a separate window not controlled by AirNav.

 

 
 

FBO, Fuel Providers, and Aircraft Ground Support

  
 Business Name 
 
 Contact 
 
 Services / Description 
 
Fuel Prices
 
Comments
  
Betz Airport 517-499-4860
no information available

If you are affiliated with Betz Airport and would like to show here your services, contact info, web link, logo, and more, click here
100LL
AS $5.00 
 Updated 08-Nov-2018
 
   write
AS=Assisted/Self Service
Update Fuel Prices
 

Would you like to see your business listed on this page?

 If your business provides an interesting product or service to pilots, flight crews, aircraft, or users of the Betz Airport, you should consider listing it here.  To start the listing process, click on the button below
 
Add a business
 

Other Pages about Betz Airport

Page from the Michigan Airport Directory (PDF)
 
Update a link
 
Copyright © AirNav, LLC. All rights reserved. Privacy Policy  Contact